Home > Weather > Dakar > Past weeks

Flag for Senegal Past Weather in Dakar, Senegal — Yesterday and Last 2 Weeks

Now
81 °F

Passing clouds.


Feels Like: 85 °F
Forecast: 78 / 82 °F
Wind: 6 mph from West

Location: Dakar / Yoff

Current Time: Jul 24, 2016 at 1:00:25 AM

Latest Report: Jul 24, 2016 at 12:30 AM


Visibility: N/A

Pressure: 29.92 "Hg

Humidity: 79%

Dew Point: 73 °F

Location of DakarLocation

Past Weather in Dakar — Graph

°F

Dakar Temperature Yesterday

Maximum temperature yesterday: 88 °F (at 4:30 PM)
Minimum temperature yesterday: 77 °F (at 7:00 AM)
Average temperature yesterday: 82 °F

High & Low Weather Summary for the Past Weeks

 TemperatureHumidityPressure
High97 °F (Jul 19, 7:30 AM)94% (Jul 21, 3:30 PM)32.99 "Hg (Jul 21, 3:30 PM)
Low75 °F (Jul 11, 3:00 AM)44% (Jul 19, 7:30 AM)29.80 "Hg (Jul 14, 3:00 PM)
Average80 °F78%29.91 "Hg
* Reported Jul 9 12:00 AM — Jul 24 12:10 AM, Dakar, Weather by CustomWeather, © 2016

Note: Actual official high and low records may vary slightly from our data, if they occured in-between our weather recording intervals... More about our weather records

Advertising

Dakar Weather History for the Previous 24 Hours

Scroll right to see more
 ConditionsComfort  
Time TempWeatherWind HumidityBarometerVisibility
12:10 AM
Sun, Jul 24
81 °FPassing clouds.6 mph79%29.92 "HgN/A
11:30 PM
Sat, Jul 23
81 °FPassing clouds.7 mph79%29.92 "HgN/A
11:00 PM81 °FPassing clouds.7 mph84%29.92 "HgN/A
10:30 PM81 °FPassing clouds.8 mph84%29.92 "HgN/A
10:00 PM81 °FPassing clouds.8 mph84%29.92 "HgN/A
9:30 PM81 °FPassing clouds.7 mph84%29.89 "HgN/A
9:00 PM81 °FPassing clouds.9 mph84%29.89 "HgN/A
8:30 PM82 °FPassing clouds.9 mph79%29.89 "HgN/A
8:00 PM82 °FPassing clouds.8 mph79%29.89 "HgN/A
7:30 PM82 °FScattered clouds.8 mph74%29.86 "HgN/A
7:00 PM82 °FScattered clouds.8 mph79%29.86 "HgN/A
6:30 PM84 °FScattered clouds.8 mph74%29.86 "HgN/A
6:00 PM84 °FScattered clouds.8 mph74%29.86 "HgN/A
5:30 PM86 °FScattered clouds.8 mph70%29.86 "HgN/A
5:00 PM88 °FScattered clouds.7 mph62%29.86 "HgN/A
4:30 PM88 °FScattered clouds.7 mph66%29.89 "HgN/A
4:00 PM86 °FScattered clouds.8 mph70%29.89 "HgN/A
3:30 PM86 °FScattered clouds.9 mph70%29.89 "HgN/A
3:00 PM86 °FScattered clouds.9 mph70%29.89 "HgN/A
2:30 PM82 °FScattered clouds.8 mph84%29.89 "HgN/A
2:00 PM86 °FScattered clouds.10 mph70%29.89 "HgN/A
1:30 PM86 °FScattered clouds.10 mph70%29.89 "HgN/A
1:00 PM86 °FScattered clouds.10 mph70%29.89 "HgN/A
12:30 PM86 °FScattered clouds.8 mph70%29.92 "HgN/A
12:00 PM84 °FScattered clouds.9 mph74%29.92 "HgN/A
11:30 AM84 °FScattered clouds.8 mph74%29.92 "HgN/A
11:00 AM82 °FScattered clouds.7 mph79%29.92 "HgN/A
10:30 AM82 °FScattered clouds.8 mph79%29.92 "HgN/A
10:00 AM81 °FScattered clouds.5 mph84%29.92 "HgN/A
9:30 AM81 °FScattered clouds.6 mph84%29.92 "HgN/A
9:00 AM81 °FScattered clouds.7 mph84%29.89 "HgN/A
8:30 AM79 °FScattered clouds.8 mph89%29.89 "HgN/A
8:00 AM79 °FScattered clouds.5 mph89%29.89 "HgN/A
7:30 AM77 °FPartly sunny.7 mph94%29.89 "HgN/A
7:00 AM77 °FDrizzle. Partly sunny.10 mph94%29.89 "Hg4 mi
6:30 AM79 °FPassing clouds.6 mph89%29.89 "HgN/A
6:00 AM81 °FLight rain. Passing clouds.6 mph84%29.89 "HgN/A
5:30 AM79 °FPassing clouds.6 mph89%29.89 "HgN/A
5:00 AM79 °FPassing clouds.5 mph89%29.89 "HgN/A
4:30 AM79 °FPassing clouds.6 mph89%29.89 "HgN/A
4:00 AM79 °FPassing clouds.7 mph89%29.89 "HgN/A
3:30 AM81 °FPassing clouds.5 mph84%29.89 "HgN/A
3:00 AM79 °FPassing clouds.6 mph89%29.89 "HgN/A
2:30 AM81 °FPassing clouds.7 mph84%29.92 "HgN/A
2:00 AM81 °FPassing clouds.8 mph84%29.92 "HgN/A
1:30 AM81 °FPassing clouds.10 mph79%29.92 "HgN/A
1:00 AM81 °FPassing clouds.8 mph84%29.92 "HgN/A
Weather by CustomWeather, © 2016

See weather overviewHow to use our weather pages